CORAL

Last updated on Sun Jun 21 2026 00:02:11 GMT+0000 (Coordinated Universal Time)

1 67684U 98067YA 26171.30157074 .00197076 00000+0 11253-2 0 9998 2 67684 51.6212 272.0603 0008844 276.5417 83.4576 15.77721965 20854
UTC large
Height (km)
Speed (km/s)
/
Latitude / Longitude
Inclination (degrees)
Orbital Period (minutes)
Azimuth
Elevation
Range (km)
Doppler Factor

Next 0 passes for location: London (51.5072 / 0.1276)

No passes found over London.
CORAL